Hourly Weather Luis Moya

Today, 17 May, Monday

Time Temperature Precipitation Wind Pressure Humidity
00:00 +23°C° 0 mm 1 mps 601 mmHg 32%
01:00 +22°C° 0 mm 1 mps 600 mmHg 39%
02:00 +19°C° 0 mm 0 mps 600 mmHg 46%
03:00 +21°C° 0 mm 1 mps 600 mmHg 44%
04:00 +19°C° 0 mm 2 mps 600 mmHg 42%
05:00 +19°C° 0 mm 2 mps 600 mmHg 40%
06:00 +20°C° 0 mm 2 mps 601 mmHg 36%
07:00 +23°C° 0 mm 2 mps 601 mmHg 32%
08:00 +25°C° 0 mm 2 mps 602 mmHg 28%
09:00 +26°C° 0 mm 2 mps 603 mmHg 25%
10:00 +27°C° 0 mm 2 mps 603 mmHg 22%
11:00 +29°C° 0 mm 3 mps 603 mmHg 18%
12:00 +29°C° 0 mm 3 mps 603 mmHg 17%
13:00 +30°C° 0 mm 3 mps 602 mmHg 16%
14:00 +30°C° 0 mm 3 mps 602 mmHg 15%
15:00 +30°C° 0 mm 3 mps 601 mmHg 16%
16:00 +29°C° 0 mm 4 mps 601 mmHg 17%
17:00 +29°C° 0 mm 4 mps 601 mmHg 18%
18:00 +27°C° 0.1 mm 4 mps 601 mmHg 24%
19:00 +25°C° 0.1 mm 4 mps 601 mmHg 31%
20:00 +22°C° 0.1 mm 5 mps 601 mmHg 37%
21:00 +22°C° 0 mm 4 mps 601 mmHg 36%
22:00 +22°C° 0 mm 3 mps 601 mmHg 34%
23:00 +23°C° 0 mm 2 mps 601 mmHg 33%

Tomorrow, 18 May, Tuesday

Time Temperature Precipitation Wind Pressure Humidity
00:00 +21°C° 0 mm 2 mps 600 mmHg 37%
01:00 +22°C° 0 mm 1 mps 600 mmHg 40%
02:00 +21°C° 0 mm 1 mps 599 mmHg 44%
03:00 +20°C° 0 mm 1 mps 599 mmHg 46%
04:00 +20°C° 0 mm 1 mps 599 mmHg 48%
05:00 +19°C° 0 mm 1 mps 599 mmHg 51%
06:00 +21°C° 0 mm 1 mps 600 mmHg 44%
07:00 +22°C° 0 mm 1 mps 601 mmHg 37%
08:00 +24°C° 0 mm 1 mps 602 mmHg 31%
09:00 +25°C° 0 mm 2 mps 602 mmHg 25%
10:00 +27°C° 0 mm 3 mps 602 mmHg 20%
11:00 +28°C° 0 mm 4 mps 602 mmHg 15%
12:00 +29°C° 0 mm 5 mps 602 mmHg 14%
13:00 +30°C° 0 mm 6 mps 601 mmHg 13%
14:00 +30°C° 0 mm 7 mps 601 mmHg 12%
15:00 +31°C° 0 mm 8 mps 601 mmHg 11%
16:00 +29°C° 0 mm 8 mps 600 mmHg 11%
17:00 +29°C° 0 mm 9 mps 600 mmHg 10%
18:00 +27°C° 0 mm 8 mps 600 mmHg 13%
19:00 +26°C° 0 mm 8 mps 600 mmHg 15%
20:00 +23°C° 0 mm 8 mps 599 mmHg 18%
21:00 +22°C° 0 mm 8 mps 599 mmHg 20%
22:00 +21°C° 0 mm 8 mps 599 mmHg 22%
23:00 +20°C° 0 mm 8 mps 599 mmHg 23%

Day after tomorrow, 19 May, Wednesday

Time Temperature Precipitation Wind Pressure Humidity
00:00 +19°C° 0 mm 6 mps 598 mmHg 24%
01:00 +17°C° 0 mm 5 mps 598 mmHg 25%
02:00 +17°C° 0 mm 3 mps 597 mmHg 25%
03:00 +17°C° 0 mm 3 mps 597 mmHg 27%
04:00 +16°C° 0 mm 2 mps 598 mmHg 29%
05:00 +15°C° 0 mm 1 mps 598 mmHg 31%
06:00 +18°C° 0 mm 1 mps 598 mmHg 27%
07:00 +19°C° 0 mm 2 mps 599 mmHg 23%
08:00 +20°C° 0 mm 2 mps 600 mmHg 19%
09:00 +22°C° 0 mm 3 mps 600 mmHg 15%
10:00 +23°C° 0 mm 4 mps 601 mmHg 12%
11:00 +26°C° 0 mm 4 mps 601 mmHg 9%
12:00 +27°C° 0 mm 5 mps 601 mmHg 8%
13:00 +27°C° 0 mm 6 mps 600 mmHg 8%
14:00 +28°C° 0 mm 7 mps 600 mmHg 7%
15:00 +28°C° 0 mm 6 mps 600 mmHg 7%
16:00 +27°C° 0 mm 6 mps 599 mmHg 7%
17:00 +27°C° 0 mm 6 mps 599 mmHg 7%
18:00 +26°C° 0 mm 6 mps 599 mmHg 9%
19:00 +23°C° 0 mm 6 mps 599 mmHg 11%
20:00 +22°C° 0 mm 6 mps 599 mmHg 12%
21:00 +21°C° 0 mm 5 mps 599 mmHg 15%
22:00 +20°C° 0 mm 4 mps 599 mmHg 17%
23:00 +19°C° 0 mm 3 mps 599 mmHg 20%

20 May, Thursday

Time Temperature Precipitation Wind Pressure Humidity
00:00 +18°C° 0 mm 3 mps 598 mmHg 21%
01:00 +18°C° 0 mm 2 mps 598 mmHg 21%
02:00 +17°C° 0 mm 2 mps 598 mmHg 22%
03:00 +16°C° 0 mm 1 mps 598 mmHg 23%
04:00 +16°C° 0 mm 1 mps 598 mmHg 24%
05:00 +15°C° 0 mm 1 mps 598 mmHg 26%
06:00 +16°C° 0 mm 0 mps 599 mmHg 22%
07:00 +18°C° 0 mm 0 mps 600 mmHg 19%
08:00 +20°C° 0 mm 0 mps 601 mmHg 16%
09:00 +24°C° 0 mm 1 mps 601 mmHg 14%
10:00 +25°C° 0 mm 1 mps 601 mmHg 12%
11:00 +27°C° 0 mm 2 mps 602 mmHg 10%
12:00 +27°C° 0 mm 3 mps 601 mmHg 10%
13:00 +28°C° 0 mm 3 mps 601 mmHg 9%
14:00 +29°C° 0 mm 4 mps 601 mmHg 9%
15:00 +29°C° 0 mm 4 mps 601 mmHg 10%
16:00 +28°C° 0 mm 4 mps 600 mmHg 10%
17:00 +28°C° 0 mm 4 mps 600 mmHg 11%
18:00 +27°C° 0 mm 3 mps 600 mmHg 13%
19:00 +26°C° 0 mm 3 mps 600 mmHg 15%
20:00 +25°C° 0 mm 3 mps 599 mmHg 18%
21:00 +22°C° 0 mm 3 mps 600 mmHg 28%
22:00 +20°C° 0 mm 4 mps 600 mmHg 39%
23:00 +19°C° 0 mm 5 mps 600 mmHg 50%

21 May, Friday

Time Temperature Precipitation Wind Pressure Humidity
00:00 +18°C° 0 mm 4 mps 599 mmHg 52%
01:00 +17°C° 0 mm 3 mps 599 mmHg 54%
02:00 +17°C° 0 mm 2 mps 599 mmHg 56%
03:00 +18°C° 0 mm 1 mps 599 mmHg 58%
04:00 +16°C° 0 mm 1 mps 599 mmHg 60%
05:00 +16°C° 0 mm 1 mps 599 mmHg 62%
06:00 +18°C° 0 mm 1 mps 600 mmHg 56%
07:00 +20°C° 0 mm 1 mps 601 mmHg 51%
08:00 +20°C° 0 mm 2 mps 602 mmHg 45%
09:00 +23°C° 0 mm 2 mps 602 mmHg 38%
10:00 +25°C° 0 mm 2 mps 602 mmHg 31%
11:00 +26°C° 0 mm 2 mps 603 mmHg 24%
12:00 +27°C° 0 mm 2 mps 602 mmHg 22%
13:00 +28°C° 0 mm 2 mps 602 mmHg 19%
14:00 +29°C° 0 mm 3 mps 602 mmHg 16%
15:00 +29°C° 0 mm 3 mps 602 mmHg 16%
16:00 +29°C° 0 mm 4 mps 601 mmHg 16%
17:00 +29°C° 0 mm 4 mps 601 mmHg 17%
18:00 +27°C° 0 mm 6 mps 601 mmHg 27%
19:00 +23°C° 0 mm 7 mps 601 mmHg 38%
20:00 +21°C° 0 mm 9 mps 601 mmHg 48%
21:00 +20°C° 0 mm 7 mps 601 mmHg 54%
22:00 +19°C° 0 mm 6 mps 601 mmHg 60%
23:00 +17°C° 0 mm 5 mps 602 mmHg 66%

22 May, Saturday

Time Temperature Precipitation Wind Pressure Humidity
00:00 +18°C° 0 mm 4 mps 601 mmHg 68%
01:00 +18°C° 0 mm 4 mps 601 mmHg 70%
02:00 +17°C° 0 mm 3 mps 601 mmHg 71%
03:00 +17°C° 0 mm 3 mps 601 mmHg 73%
04:00 +16°C° 0 mm 2 mps 601 mmHg 75%
05:00 +16°C° 0 mm 2 mps 601 mmHg 76%
06:00 +17°C° 0 mm 2 mps 602 mmHg 69%
07:00 +18°C° 0 mm 2 mps 602 mmHg 61%
08:00 +20°C° 0 mm 2 mps 603 mmHg 53%
09:00 +21°C° 0 mm 2 mps 603 mmHg 46%
10:00 +24°C° 0 mm 2 mps 603 mmHg 39%
11:00 +26°C° 0 mm 2 mps 603 mmHg 32%
12:00 +27°C° 0 mm 3 mps 603 mmHg 30%
13:00 +27°C° 0 mm 3 mps 603 mmHg 28%
14:00 +28°C° 0 mm 4 mps 602 mmHg 26%
15:00 +27°C° 0 mm 5 mps 602 mmHg 29%
16:00 +26°C° 0 mm 7 mps 602 mmHg 32%
17:00 +26°C° 0 mm 8 mps 602 mmHg 35%
18:00 +23°C° 0 mm 8 mps 602 mmHg 41%
19:00 +22°C° 0 mm 8 mps 602 mmHg 48%
20:00 +20°C° 0 mm 8 mps 602 mmHg 54%
21:00 +20°C° 0 mm 7 mps 602 mmHg 57%
22:00 +19°C° 0 mm 6 mps 602 mmHg 61%
23:00 +19°C° 0 mm 5 mps 602 mmHg 64%
Show more

We Need Your Consent

Meteoprog and our Service Providers may store and access personal data such as cookies, device identifiers or other similar technologies on your device and process such data to personalise content and ads, as well as provide social media features and to analyse the traffic.

  • Store and/or access information on your device

    Cookies, device identifiers or other information can be stored or accessed on your device for the purposes indicated above.

  • Personalised ads and content, ad and content measurement, audience insights, and products development

    Ads and content can be personalised based on a profile. More data can be added to better personalise ads and content. Ad and content performance can be measured. Insights about the audience who saw the ads and content can be derived. Such data can be used to develop or improve user’s experience, systems and software.

By clicking ‘I Agree’ you will allow the use of indicated cookies, device identifiers, web beacons or other similar technologies. Your settings can be changed in the browser on your device.

For certain purposes, legitimate interests may be relied on, rather than consent. You can read more about this in our Privacy and Cookie Policy.